| time (UTC) | temp F | wind direction | speed knots | gust knots | rain 1hr in | rain 24hr in | rain mn in | humidity % | barometer mb |
| 20260831072742 | 71 | 180 | 0.0 | 0.0 | 0.00 | 0.00 | 0.00 | 99 | 1021.6 |
| 20260831072149 | 71 | 315 | 0.0 | 0.0 | 0.00 | 0.00 | 0.00 | 99 | 1021.6 |
| 20260831071523 | 71 | 203 | 0.0 | 0.0 | 0.00 | 0.00 | 0.00 | 99 | 1022.0 |
| 20260831070928 | 71 | 180 | 0.0 | 0.0 | 0.00 | 0.00 | 0.00 | 99 | 1022.0 |
| 20260831070307 | 71 | 203 | 0.0 | 0.0 | 0.00 | 0.00 | 0.00 | 99 | 1022.0 |
| 20260831065736 | 71 | 180 | 0.0 | 0.0 | 0.00 | 0.00 | 0.00 | 99 | 1022.0 |
| 20260831065141 | 71 | 293 | 0.0 | 0.0 | 0.00 | 0.00 | 0.00 | 99 | 1022.0 |
| 20260831064514 | 71 | 248 | 0.0 | 0.0 | 0.00 | 0.00 | 0.00 | 99 | 1022.0 |
| 20260831063335 | 71 | 203 | 0.0 | 0.0 | 0.00 | 0.00 | 0.00 | 99 | 1022.0 |
| 20260831062738 | 71 | 248 | 0.0 | 0.0 | 0.00 | 0.00 | 0.00 | 99 | 1022.0 |
| 20260831061510 | 71 | 203 | 0.0 | 0.0 | 0.00 | 0.00 | 0.00 | 99 | 1022.0 |
| 20260831060929 | 71 | 203 | 0.0 | 0.0 | 0.00 | 0.00 | 0.00 | 99 | 1022.0 |
| 20260831060306 | 71 | 203 | 0.0 | 0.0 | 0.00 | 0.00 | 0.00 | 99 | 1022.3 |
| 20260831055726 | 71 | 203 | 0.0 | 0.0 | 0.00 | 0.00 | 0.00 | 99 | 1022.0 |
| 20260831055110 | 71 | 203 | 0.0 | 0.0 | 0.00 | 0.00 | 0.00 | 99 | 1022.0 |
| 20260831054545 | 72 | 203 | 0.0 | 0.0 | 0.00 | 0.00 | 0.00 | 99 | 1022.0 |
| 20260831053931 | 71 | 203 | 0.0 | 0.0 | 0.00 | 0.00 | 0.00 | 99 | 1022.0 |
| 20260831053334 | 71 | 225 | 0.0 | 0.0 | 0.00 | 0.00 | 0.00 | 99 | 1022.0 |
| 20260831052718 | 71 | 203 | 0.0 | 0.0 | 0.00 | 0.00 | 0.00 | 99 | 1022.3 |
| 20260831052122 | 71 | 225 | 0.0 | 0.0 | 0.00 | 0.00 | 0.00 | 99 | 1022.3 |
| 20260831051546 | 71 | 203 | 0.0 | 0.0 | 0.00 | 0.00 | 0.00 | 99 | 1022.3 |
| 20260831050938 | 71 | 180 | 0.0 | 0.0 | 0.00 | 0.00 | 0.00 | 99 | 1022.3 |
| 20260831050333 | 71 | 180 | 0.0 | 0.0 | 0.00 | 0.00 | 0.00 | 99 | 1022.3 |
| 20260831045726 | 72 | 158 | 0.0 | 0.0 | 0.00 | 0.00 | 0.00 | 99 | 1022.3 |
| 20260831045111 | 72 | 203 | 0.0 | 0.0 | 0.00 | 0.00 | 0.00 | 99 | 1022.3 |
| 20260831044519 | 72 | 203 | 0.0 | 0.0 | 0.00 | 0.00 | 0.00 | 99 | 1022.3 |
| 20260831042732 | 72 | 203 | 0.0 | 0.0 | 0.00 | 0.00 | 0.00 | 99 | 1022.3 |
| 20260831042110 | 72 | 203 | 0.0 | 0.0 | 0.00 | 0.00 | 0.00 | 99 | 1022.3 |
| 20260831041516 | 72 | 203 | 0.0 | 0.0 | 0.00 | 0.00 | 0.00 | 99 | 1022.3 |
| 20260831040912 | 72 | 180 | 0.0 | 0.0 | 0.00 | 0.00 | 0.00 | 99 | 1022.3 |
| 20260831035738 | 72 | 203 | 0.0 | 0.0 | 0.00 | 0.00 | 0.01 | 99 | 1022.3 |
| 20260831035107 | 72 | 180 | 0.0 | 0.0 | 0.00 | 0.00 | 0.01 | 99 | 1022.3 |
| 20260831034519 | 72 | 203 | 0.0 | 0.0 | 0.00 | 0.00 | 0.01 | 99 | 1022.3 |
| 20260831033929 | 72 | 203 | 0.0 | 0.0 | 0.00 | 0.00 | 0.01 | 99 | 1022.3 |
| 20260831033344 | 72 | 203 | 0.0 | 0.0 | 0.00 | 0.00 | 0.01 | 99 | 1022.3 |
| 20260831032730 | 72 | 203 | 0.0 | 0.0 | 0.00 | 0.00 | 0.01 | 99 | 1022.6 |
| 20260831032131 | 72 | 203 | 0.0 | 0.0 | 0.00 | 0.00 | 0.01 | 99 | 1022.3 |
| 20260831031519 | 72 | 225 | 0.0 | 0.0 | 0.00 | 0.00 | 0.01 | 99 | 1022.3 |
| 20260831030941 | 72 | 225 | 0.0 | 0.9 | 0.00 | 0.00 | 0.01 | 99 | 1022.3 |
| 20260831030318 | 72 | 225 | 0.0 | 0.0 | 0.00 | 0.00 | 0.01 | 99 | 1022.3 |
| 20260831025140 | 73 | 203 | 0.0 | 0.0 | 0.00 | 0.00 | 0.01 | 99 | 1022.6 |
| 20260831024541 | 73 | 225 | 0.0 | 0.0 | 0.00 | 0.00 | 0.01 | 99 | 1022.3 |
| 20260831023934 | 73 | 203 | 0.0 | 1.7 | 0.00 | 0.00 | 0.01 | 99 | 1022.3 |
| 20260831023310 | 73 | 203 | 0.0 | 0.0 | 0.00 | 0.00 | 0.01 | 99 | 1022.3 |
| 20260831022713 | 73 | 203 | 1.7 | 1.7 | 0.00 | 0.00 | 0.01 | 99 | 1022.3 |
| 20260831021538 | 73 | 225 | 0.0 | 0.0 | 0.00 | 0.00 | 0.01 | 99 | 1022.3 |
| 20260831020925 | 73 | 203 | 0.0 | 1.7 | 0.00 | 0.00 | 0.01 | 99 | 1022.3 |
| 20260831020343 | 73 | 203 | 0.0 | 1.7 | 0.00 | 0.00 | 0.01 | 99 | 1022.3 |
| 20260831015731 | 73 | 203 | 0.9 | 1.7 | 0.00 | 0.00 | 0.01 | 99 | 1022.3 |
| 20260831015108 | 74 | 180 | 0.0 | 0.0 | 0.00 | 0.00 | 0.01 | 99 | 1022.3 |
| 20260831014532 | 74 | 203 | 0.0 | 0.0 | 0.00 | 0.00 | 0.01 | 99 | 1022.3 |
| 20260831013317 | 74 | 180 | 0.0 | 0.0 | 0.00 | 0.00 | 0.01 | 99 | 1022.3 |
| 20260831012712 | 74 | 180 | 0.0 | 0.0 | 0.00 | 0.00 | 0.01 | 99 | 1022.0 |
| 20260831012134 | 74 | 225 | 1.7 | 1.7 | 0.00 | 0.00 | 0.01 | 99 | 1022.0 |
| 20260831011513 | 74 | 180 | 1.7 | 1.7 | 0.00 | 0.00 | 0.01 | 99 | 1022.0 |
| 20260831010947 | 75 | 203 | 0.0 | 1.7 | 0.00 | 0.00 | 0.01 | 99 | 1022.0 |
| 20260831005714 | 75 | 203 | 0.9 | 3.5 | 0.00 | 0.00 | 0.01 | 99 | 1021.6 |
| 20260831005124 | 75 | 158 | 1.7 | 1.7 | 0.00 | 0.00 | 0.01 | 99 | 1022.0 |
| 20260831004536 | 75 | 180 | 1.7 | 1.7 | 0.00 | 0.00 | 0.01 | 99 | 1021.6 |
| 20260831003948 | 76 | 203 | 0.9 | 2.6 | 0.00 | 0.00 | 0.01 | 99 | 1021.6 |
| 20260831003307 | 76 | 180 | 1.7 | 2.6 | 0.00 | 0.00 | 0.01 | 99 | 1021.6 |
| 20260831002133 | 77 | 225 | 0.9 | 1.7 | 0.00 | 0.00 | 0.01 | 99 | 1021.3 |
| 20260831001541 | 77 | 180 | 0.9 | 0.9 | 0.00 | 0.00 | 0.01 | 99 | 1021.3 |
| 20260831000949 | 78 | 203 | 0.0 | 1.7 | 0.00 | 0.00 | 0.01 | 99 | 1021.3 |
| 20260831000313 | 78 | 180 | 0.9 | 1.7 | 0.00 | 0.00 | 0.01 | 99 | 1020.9 |
| 20260830235711 | 78 | 158 | 1.7 | 1.7 | 0.00 | 0.00 | 0.01 | 99 | 1020.9 |
| 20260830235118 | 79 | 203 | 0.9 | 1.7 | 0.00 | 0.00 | 0.01 | 99 | 1020.9 |
| 20260830234533 | 79 | 203 | 0.9 | 0.9 | 0.00 | 0.00 | 0.01 | 99 | 1020.9 |
| 20260830233948 | 79 | 203 | 1.7 | 1.7 | 0.00 | 0.00 | 0.01 | 99 | 1020.9 |
| 20260830233325 | 79 | 203 | 2.6 | 2.6 | 0.00 | 0.00 | 0.01 | 99 | 1020.9 |
| 20260830232720 | 80 | 203 | 1.7 | 1.7 | 0.00 | 0.00 | 0.01 | 98 | 1020.9 |
| 20260830232140 | 80 | 203 | 2.6 | 2.6 | 0.00 | 0.00 | 0.01 | 97 | 1020.9 |
| 20260830230919 | 81 | 180 | 0.9 | 1.7 | 0.00 | 0.00 | 0.01 | 96 | 1020.9 |
| 20260830225747 | 81 | 135 | 1.7 | 3.5 | 0.00 | 0.00 | 0.01 | 97 | 1020.9 |
| 20260830225112 | 81 | 203 | 1.7 | 2.6 | 0.00 | 0.00 | 0.01 | 98 | 1020.9 |
| 20260830224549 | 82 | 180 | 1.7 | 2.6 | 0.00 | 0.00 | 0.01 | 96 | 1020.9 |
| 20260830223926 | 83 | 203 | 1.7 | 2.6 | 0.00 | 0.00 | 0.01 | 94 | 1020.9 |
| 20260830223313 | 83 | 180 | 1.7 | 3.5 | 0.00 | 0.00 | 0.01 | 93 | 1020.9 |
| 20260830222734 | 84 | 203 | 1.7 | 2.6 | 0.00 | 0.00 | 0.01 | 91 | 1020.9 |
| 20260830222139 | 85 | 158 | 2.6 | 2.6 | 0.00 | 0.00 | 0.01 | 89 | 1020.9 |
| 20260830221521 | 86 | 203 | 2.6 | 2.6 | 0.00 | 0.00 | 0.01 | 88 | 1020.9 |
| 20260830220940 | 86 | 203 | 3.5 | 3.5 | 0.00 | 0.00 | 0.01 | 86 | 1020.9 |
| 20260830220335 | 86 | 180 | 1.7 | 3.5 | 0.00 | 0.00 | 0.01 | 86 | 1020.9 |
| 20260830215123 | 87 | 180 | 2.6 | 3.5 | 0.00 | 0.00 | 0.01 | 84 | 1020.9 |
| 20260830214549 | 87 | 180 | 3.5 | 3.5 | 0.00 | 0.00 | 0.01 | 86 | 1021.3 |
| 20260830213940 | 87 | 203 | 1.7 | 3.5 | 0.00 | 0.00 | 0.01 | 84 | 1021.3 |
| 20260830213322 | 86 | 203 | 1.7 | 3.5 | 0.00 | 0.00 | 0.01 | 85 | 1020.9 |
| 20260830212747 | 86 | 203 | 2.6 | 3.5 | 0.00 | 0.00 | 0.01 | 85 | 1021.3 |
| 20260830211511 | 85 | 203 | 3.5 | 3.5 | 0.00 | 0.00 | 0.01 | 87 | 1021.3 |
| 20260830210931 | 85 | 203 | 2.6 | 3.5 | 0.00 | 0.00 | 0.01 | 85 | 1020.9 |
| 20260830210342 | 85 | 225 | 3.5 | 4.3 | 0.00 | 0.00 | 0.01 | 85 | 1020.9 |
| 20260830205743 | 85 | 158 | 2.6 | 3.5 | 0.00 | 0.00 | 0.01 | 85 | 1020.9 |
| 20260830205138 | 85 | 203 | 3.5 | 3.5 | 0.00 | 0.00 | 0.01 | 86 | 1020.9 |
| 20260830204535 | 84 | 180 | 2.6 | 2.6 | 0.00 | 0.00 | 0.01 | 91 | 1021.3 |
| 20260830203340 | 85 | 270 | 0.0 | 0.9 | 0.00 | 0.00 | 0.01 | 86 | 1021.3 |
| 20260830202715 | 87 | 45 | 1.7 | 1.7 | 0.00 | 0.00 | 0.01 | 83 | 1021.3 |
| 20260830202137 | 87 | 315 | 0.0 | 1.7 | 0.00 | 0.00 | 0.01 | 86 | 1021.3 |
| 20260830201525 | 87 | 225 | 1.7 | 1.7 | 0.00 | 0.00 | 0.01 | 87 | 1021.3 |
| 20260830200319 | 87 | 203 | 2.6 | 2.6 | 0.00 | 0.00 | 0.01 | 84 | 1021.6 |
| 20260830195731 | 87 | 68 | 0.0 | 0.0 | 0.00 | 0.00 | 0.01 | 85 | 1021.6 |
| 20260830195138 | 87 | 203 | 1.7 | 1.7 | 0.00 | 0.00 | 0.01 | 83 | 1021.6 |
| 20260830194541 | 87 | 203 | 2.6 | 2.6 | 0.00 | 0.00 | 0.01 | 83 | 1021.6 |
| 20260830193943 | 88 | 203 | 2.6 | 3.5 | 0.00 | 0.00 | 0.01 | 80 | 1022.0 |
| 20260830192723 | 90 | 203 | 2.6 | 2.6 | 0.00 | 0.00 | 0.01 | 75 | 1022.0 |
| 20260830192122 | 93 | 180 | 1.7 | 1.7 | 0.00 | 0.00 | 0.01 | 71 | 1022.3 |
| 20260830190935 | 89 | 203 | 2.6 | 4.3 | 0.00 | 0.00 | 0.01 | 77 | 1022.3 |
| 20260830190313 | 87 | 225 | 1.7 | 5.2 | 0.00 | 0.00 | 0.01 | 81 | 1022.3 |
| 20260830185707 | 88 | 180 | 5.2 | 6.1 | 0.00 | 0.00 | 0.01 | 78 | 1022.3 |
| 20260830185132 | 90 | 180 | 2.6 | 3.5 | 0.00 | 0.00 | 0.01 | 74 | 1022.3 |
| 20260830184508 | 92 | 23 | 3.5 | 4.3 | 0.00 | 0.00 | 0.01 | 73 | 1022.3 |
| 20260830183934 | 94 | 23 | 5.2 | 7.0 | 0.00 | 0.00 | 0.01 | 67 | 1022.6 |
| 20260830182726 | 93 | 270 | 2.6 | 4.3 | 0.00 | 0.00 | 0.01 | 68 | 1022.6 |
| 20260830182136 | 91 | 225 | 1.7 | 1.7 | 0.00 | 0.00 | 0.01 | 75 | 1023.0 |
| 20260830181538 | 89 | 203 | 1.7 | 1.7 | 0.00 | 0.00 | 0.01 | 79 | 1023.0 |
| 20260830180945 | 92 | 180 | 1.7 | 2.6 | 0.00 | 0.00 | 0.01 | 72 | 1023.0 |
| 20260830180306 | 91 | 225 | 1.7 | 1.7 | 0.00 | 0.00 | 0.01 | 72 | 1023.3 |
| 20260830175715 | 91 | 180 | 2.6 | 3.5 | 0.00 | 0.00 | 0.01 | 72 | 1023.3 |
| 20260830175110 | 89 | 248 | 0.0 | 2.6 | 0.00 | 0.00 | 0.01 | 75 | 1023.3 |
| 20260830174518 | 90 | 270 | 0.0 | 0.0 | 0.00 | 0.00 | 0.01 | 72 | 1023.3 |
| 20260830173949 | 90 | 270 | 0.9 | 1.7 | 0.00 | 0.00 | 0.01 | 73 | 1023.7 |
| 20260830172729 | 89 | 0 | 4.3 | 5.2 | 0.00 | 0.00 | 0.01 | 73 | 1023.7 |
| 20260830172120 | 89 | 338 | 5.2 | 6.1 | 0.00 | 0.00 | 0.01 | 71 | 1023.7 |
| 20260830171536 | 90 | 338 | 2.6 | 3.5 | 0.00 | 0.00 | 0.01 | 71 | 1023.7 |
| 20260830170928 | 92 | 203 | 2.6 | 4.3 | 0.00 | 0.00 | 0.01 | 69 | 1023.7 |
| 20260830165114 | 90 | 113 | 1.7 | 3.5 | 0.00 | 0.00 | 0.01 | 73 | 1024.0 |
| 20260830164532 | 92 | 293 | 1.7 | 3.5 | 0.00 | 0.00 | 0.01 | 71 | 1024.0 |
| 20260830163936 | 90 | 225 | 1.7 | 4.3 | 0.00 | 0.00 | 0.01 | 72 | 1024.0 |
| 20260830163343 | 90 | 23 | 4.3 | 4.3 | 0.00 | 0.00 | 0.01 | 72 | 1024.0 |
| 20260830162709 | 90 | 203 | 3.5 | 4.3 | 0.00 | 0.00 | 0.01 | 73 | 1024.0 |
| 20260830162131 | 91 | 293 | 5.2 | 5.2 | 0.00 | 0.00 | 0.01 | 72 | 1024.3 |
| 20260830161529 | 89 | 338 | 1.7 | 2.6 | 0.00 | 0.00 | 0.01 | 74 | 1024.3 |
| 20260830160925 | 90 | 180 | 3.5 | 3.5 | 0.00 | 0.00 | 0.01 | 74 | 1024.3 |
| 20260830160320 | 90 | 270 | 1.7 | 3.5 | 0.00 | 0.00 | 0.01 | 74 | 1024.3 |
| 20260830155737 | 90 | 23 | 1.7 | 3.5 | 0.00 | 0.00 | 0.01 | 75 | 1024.3 |
| 20260830155150 | 90 | 270 | 2.6 | 3.5 | 0.00 | 0.00 | 0.01 | 74 | 1024.3 |
| 20260830154519 | 89 | 158 | 0.9 | 0.9 | 0.00 | 0.00 | 0.01 | 75 | 1024.3 |
| 20260830153924 | 90 | 270 | 2.6 | 2.6 | 0.00 | 0.00 | 0.01 | 74 | 1024.3 |
| 20260830153326 | 88 | 315 | 1.7 | 3.5 | 0.00 | 0.00 | 0.01 | 75 | 1024.3 |
| 20260830152727 | 88 | 113 | 1.7 | 3.5 | 0.00 | 0.00 | 0.01 | 75 | 1024.3 |
| 20260830152108 | 89 | 225 | 1.7 | 2.6 | 0.00 | 0.00 | 0.01 | 74 | 1024.3 |
| 20260830150945 | 87 | 203 | 2.6 | 2.6 | 0.00 | 0.00 | 0.01 | 80 | 1024.3 |
| 20260830150326 | 84 | 158 | 1.7 | 2.6 | 0.00 | 0.00 | 0.01 | 83 | 1024.3 |
| 20260830145718 | 85 | 203 | 2.6 | 2.6 | 0.00 | 0.00 | 0.01 | 81 | 1024.3 |
| 20260830145109 | 85 | 225 | 1.7 | 3.5 | 0.00 | 0.00 | 0.01 | 80 | 1024.3 |
| 20260830144516 | 86 | 158 | 0.9 | 0.9 | 0.00 | 0.00 | 0.01 | 78 | 1024.0 |
| 20260830143941 | 87 | 338 | 2.6 | 4.3 | 0.00 | 0.00 | 0.01 | 77 | 1024.3 |
| 20260830143345 | 86 | 158 | 3.5 | 3.5 | 0.00 | 0.00 | 0.01 | 80 | 1024.0 |
| 20260830142747 | 85 | 203 | 2.6 | 2.6 | 0.00 | 0.00 | 0.01 | 82 | 1024.0 |
| 20260830141510 | 84 | 180 | 1.7 | 1.7 | 0.00 | 0.00 | 0.01 | 82 | 1024.0 |
| 20260830140923 | 83 | 270 | 1.7 | 3.5 | 0.00 | 0.00 | 0.01 | 83 | 1024.0 |
| 20260830140309 | 82 | 180 | 0.0 | 0.9 | 0.00 | 0.00 | 0.01 | 87 | 1024.0 |
| 20260830135728 | 82 | 180 | 0.0 | 0.9 | 0.00 | 0.00 | 0.01 | 90 | 1024.0 |
| 20260830135109 | 80 | 203 | 0.9 | 1.7 | 0.00 | 0.00 | 0.00 | 91 | 1024.0 |
| 20260830134546 | 79 | 225 | 0.0 | 0.0 | 0.00 | 0.00 | 0.00 | 93 | 1024.0 |
| 20260830133914 | 78 | 203 | 0.0 | 0.0 | 0.00 | 0.00 | 0.00 | 96 | 1024.0 |
| 20260830133325 | 79 | 225 | 0.0 | 1.7 | 0.00 | 0.00 | 0.00 | 92 | 1024.0 |
| 20260830132712 | 78 | 225 | 0.9 | 1.7 | 0.00 | 0.00 | 0.00 | 95 | 1024.0 |
| 20260830132145 | 78 | 203 | 1.7 | 2.6 | 0.00 | 0.00 | 0.00 | 95 | 1024.0 |
| 20260830131541 | 77 | 180 | 1.7 | 1.7 | 0.00 | 0.00 | 0.00 | 96 | 1024.0 |
| 20260830130915 | 76 | 225 | 0.0 | 0.0 | 0.00 | 0.00 | 0.00 | 98 | 1024.0 |
| 20260830130337 | 75 | 225 | 0.0 | 0.0 | 0.00 | 0.00 | 0.00 | 99 | 1024.0 |
| 20260830125109 | 74 | 45 | 0.0 | 0.0 | 0.00 | 0.00 | 0.00 | 99 | 1024.0 |
| 20260830124549 | 73 | 203 | 0.0 | 0.0 | 0.00 | 0.00 | 0.00 | 99 | 1024.0 |
| 20260830123916 | 72 | 68 | 0.0 | 0.0 | 0.00 | 0.00 | 0.00 | 99 | 1024.0 |
| 20260830123314 | 72 | 45 | 0.0 | 0.0 | 0.00 | 0.00 | 0.00 | 99 | 1024.0 |
| 20260830122744 | 71 | 90 | 0.0 | 0.0 | 0.00 | 0.00 | 0.00 | 99 | 1024.0 |
| 20260830122117 | 71 | 203 | 0.0 | 0.0 | 0.00 | 0.00 | 0.00 | 99 | 1024.0 |
| 20260830121519 | 70 | 203 | 0.0 | 0.0 | 0.00 | 0.00 | 0.00 | 99 | 1024.0 |
| 20260830120951 | 69 | 270 | 0.0 | 0.0 | 0.00 | 0.00 | 0.00 | 99 | 1024.0 |
| 20260830115705 | 68 | 270 | 0.0 | 0.0 | 0.00 | 0.00 | 0.00 | 99 | 1023.7 |
| 20260830115120 | 68 | 270 | 0.0 | 0.0 | 0.00 | 0.00 | 0.00 | 99 | 1023.7 |
| 20260830113919 | 67 | 248 | 0.0 | 0.0 | 0.00 | 0.00 | 0.00 | 99 | 1024.0 |
| 20260830113319 | 67 | 270 | 0.0 | 0.0 | 0.00 | 0.00 | 0.00 | 99 | 1023.7 |
| 20260830112724 | 67 | 293 | 0.0 | 0.0 | 0.00 | 0.00 | 0.00 | 99 | 1023.7 |
| 20260830112116 | 67 | 270 | 0.0 | 0.0 | 0.00 | 0.00 | 0.00 | 99 | 1023.7 |
| 20260830111515 | 67 | 248 | 0.0 | 0.0 | 0.00 | 0.00 | 0.00 | 99 | 1023.7 |
| 20260830110347 | 67 | 225 | 0.0 | 0.0 | 0.00 | 0.00 | 0.00 | 99 | 1023.7 |
| 20260830105716 | 67 | 225 | 0.0 | 0.0 | 0.00 | 0.00 | 0.00 | 99 | 1023.7 |
| 20260830105120 | 67 | 225 | 0.0 | 0.0 | 0.00 | 0.00 | 0.00 | 99 | 1023.7 |
| 20260830104543 | 67 | 248 | 0.0 | 0.0 | 0.00 | 0.00 | 0.00 | 99 | 1023.7 |
| 20260830103927 | 67 | 225 | 0.0 | 0.0 | 0.00 | 0.00 | 0.00 | 99 | 1023.7 |
| 20260830103349 | 67 | 225 | 0.0 | 0.0 | 0.00 | 0.00 | 0.00 | 99 | 1023.3 |
| 20260830102111 | 67 | 248 | 0.0 | 0.0 | 0.00 | 0.00 | 0.00 | 99 | 1023.3 |
| 20260830100930 | 68 | 180 | 0.0 | 0.0 | 0.00 | 0.00 | 0.00 | 99 | 1023.3 |
| 20260830100313 | 68 | 203 | 0.0 | 0.0 | 0.00 | 0.00 | 0.00 | 99 | 1023.3 |
| 20260830095743 | 68 | 225 | 0.0 | 0.0 | 0.00 | 0.00 | 0.00 | 99 | 1023.3 |
| 20260830095116 | 68 | 203 | 0.0 | 0.0 | 0.00 | 0.00 | 0.00 | 99 | 1023.3 |
| 20260830094559 | 68 | 203 | 0.0 | 0.0 | 0.00 | 0.00 | 0.00 | 99 | 1023.7 |
| 20260830093932 | 68 | 180 | 0.0 | 0.0 | 0.00 | 0.00 | 0.00 | 99 | 1023.3 |
| 20260830093318 | 68 | 203 | 0.0 | 0.0 | 0.00 | 0.00 | 0.00 | 99 | 1023.3 |
| 20260830092729 | 68 | 225 | 0.0 | 0.0 | 0.00 | 0.00 | 0.00 | 99 | 1023.3 |
| 20260830092127 | 68 | 225 | 0.0 | 0.0 | 0.00 | 0.00 | 0.00 | 99 | 1023.3 |
| 20260830091515 | 68 | 225 | 0.0 | 0.0 | 0.00 | 0.00 | 0.00 | 99 | 1023.3 |
| 20260830090949 | 68 | 203 | 0.0 | 0.0 | 0.00 | 0.00 | 0.00 | 99 | 1023.3 |
| 20260830090349 | 68 | 203 | 0.0 | 0.0 | 0.00 | 0.00 | 0.00 | 99 | 1023.0 |
| 20260830085718 | 68 | 225 | 0.0 | 0.0 | 0.00 | 0.00 | 0.00 | 99 | 1023.3 |
| 20260830085123 | 68 | 203 | 0.0 | 0.0 | 0.00 | 0.00 | 0.00 | 99 | 1023.3 |
| 20260830083944 | 68 | 270 | 0.0 | 0.0 | 0.00 | 0.00 | 0.00 | 99 | 1023.0 |
| 20260830082740 | 68 | 225 | 0.0 | 0.0 | 0.00 | 0.00 | 0.00 | 99 | 1023.0 |
| 20260830082122 | 68 | 225 | 0.0 | 0.0 | 0.00 | 0.00 | 0.00 | 99 | 1023.0 |
| 20260830080947 | 68 | 203 | 0.0 | 0.0 | 0.00 | 0.00 | 0.00 | 99 | 1023.3 |
| 20260830080339 | 68 | 203 | 0.0 | 0.0 | 0.00 | 0.00 | 0.00 | 99 | 1023.0 |
| 20260830075120 | 69 | 203 | 0.0 | 0.0 | 0.00 | 0.00 | 0.00 | 99 | 1023.3 |
| 20260830074526 | 69 | 225 | 0.0 | 0.0 | 0.00 | 0.00 | 0.00 | 99 | 1023.3 |
| 20260830073940 | 69 | 248 | 0.0 | 0.0 | 0.00 | 0.00 | 0.00 | 99 | 1023.0 |